Waukesha, WI

2:15 AM CST on November 23, 2017 (GMT -0600)
Waukesha County

Weather History for KUES - November, 2010

Change the Weather History Date:

Monday, November 8, 2010

  Actual Average Record
Temperature  
Mean Temperature 48 °F -  
Max Temperature 64 °F 48 °F 73 °F (1999)
Min Temperature 32 °F 32 °F 6 °F (1991)
Degree Days  
Heating Degree Days 17    
Moisture  
Dew Point 31 °F    
Average Humidity 61    
Maximum Humidity 85    
Minimum Humidity 30    
Precipitation  
Precipitation 0.00 in - - ()
Sea Level Pressure  
Sea Level Pressure 29.94 in    
Wind  
Wind Speed 2 mph (SSE)    
Max Wind Speed 12 mph    
Max Gust Speed -    
Visibility 10 miles    
Events      
Averages and records for this station are not official NWS values.
T = Trace of Precipitation, MM = Missing Value Source: NWS Daily Summary

Daily Weather History Graph

Daily Weather History Graph

Search for Another Location

Airport or City:

Trip Planner

Search our weather history database for the weather conditions in past years. The results will help you decide how hot, cold, wet, or windy it might be!

Date:

Astronomy

Nov. 08, 2010 Rise Set
Actual Time 6:36 AM CST 4:36 PM CST
Civil Twilight 6:06 AM CST 5:06 PM CST
Nautical Twilight 5:32 AM CST 5:40 PM CST
Astronomical Twilight 4:59 AM CST 6:13 PM CST
Moon 9:28 AM CST (11/8) 6:28 PM CST (11/8)
Length of Visible Light 11h 00m
Length of Day
9h 59m
Waxing Crescent, 8% of the Moon is Illuminated
Nov 8
Waxing Crescent
Nov 13
First Quarter
Nov 21
Full
Nov 28
Last Quarter
Dec 5
New

Hourly Weather History & Observations

Time (CST) Temp. Windchill Dew Point Humidity Pressure Visibility Wind Dir Wind Speed Gust Speed Precip Events Conditions
12:15 AM 35.8 °F - 28.8 °F 76% 30.02 in 10.0 mi Calm Calm - N/A   Clear
12:35 AM 37.2 °F - 29.3 °F 73% 30.02 in 10.0 mi Calm Calm - N/A   Clear
12:55 AM 35.4 °F - 29.3 °F 78% 30.01 in 10.0 mi Calm Calm - N/A   Clear
1:15 AM 35.6 °F - 29.3 °F 78% 30.01 in 10.0 mi Calm Calm - N/A   Clear
1:35 AM 33.8 °F - 28.6 °F 81% 30.01 in 10.0 mi Calm Calm - N/A   Clear
1:55 AM 35.4 °F - 29.1 °F 78% 30.01 in 10.0 mi Calm Calm - N/A   Clear
2:15 AM 33.3 °F - 28.9 °F 84% 30.00 in 10.0 mi Calm Calm - N/A   Clear
2:35 AM 34.7 °F - 28.8 °F 79% 30.00 in 10.0 mi Calm Calm - N/A   Clear
2:55 AM 34.0 °F - 28.9 °F 82% 29.99 in 10.0 mi Calm Calm - N/A   Clear
3:15 AM 33.8 °F - 29.1 °F 83% 29.98 in 10.0 mi Calm Calm - N/A   Clear
3:35 AM 32.5 °F - 28.2 °F 84% 29.98 in 10.0 mi Calm Calm - N/A   Clear
3:55 AM 32.2 °F - 28.0 °F 85% 29.98 in 10.0 mi Calm Calm - N/A   Clear
4:15 AM 33.6 °F - 28.6 °F 82% 29.98 in 10.0 mi Calm Calm - N/A   Clear
4:35 AM 35.2 °F - 29.5 °F 80% 29.98 in 10.0 mi Calm Calm - N/A   Clear
4:55 AM 34.9 °F - 29.3 °F 80% 29.97 in 10.0 mi Calm Calm - N/A   Clear
5:45 AM 35.6 °F 31.7 °F 28.4 °F 75% 29.98 in 10.0 mi SSW 4.6 mph - N/A   Clear
6:45 AM 35.6 °F 31.7 °F 28.4 °F 75% 29.98 in 10.0 mi SSW 4.6 mph - N/A   Clear
7:45 AM 42.8 °F 40.1 °F 32.0 °F 66% 29.98 in 10.0 mi SSW 4.6 mph - N/A   Clear
8:45 AM 48.2 °F - 32.0 °F 54% 29.98 in 10.0 mi SW 4.6 mph - N/A   Clear
9:45 AM 53.6 °F - 33.8 °F 47% 29.97 in 10.0 mi SSW 4.6 mph - N/A   Clear
10:45 AM 57.2 °F - 33.8 °F 41% 29.97 in 10.0 mi SSE 9.2 mph - N/A   Clear
11:45 AM 60.8 °F - 33.8 °F 36% 29.93 in 10.0 mi SSE 6.9 mph - N/A   Clear
12:45 PM 64.4 °F - 32.0 °F 30% 29.90 in 10.0 mi SSE 9.2 mph - N/A   Clear
1:45 PM 64.4 °F - 32.0 °F 30% 29.87 in 10.0 mi ESE 10.4 mph - N/A   Clear
3:45 PM 62.6 °F - 32.0 °F 32% 29.85 in 10.0 mi SE 9.2 mph - N/A   Clear
4:45 PM 55.4 °F - 33.8 °F 44% 29.85 in 10.0 mi ESE 11.5 mph - N/A   Clear
5:45 PM 53.6 °F - 32.0 °F 44% 29.86 in 10.0 mi ESE 6.9 mph - N/A   Clear
7:45 PM 46.4 °F - 32.0 °F 57% 29.89 in 10.0 mi Calm Calm - N/A   Clear
8:16 PM 48.4 °F - 32.0 °F 53% 29.89 in 10.0 mi SSE 4.6 mph - N/A   Clear
8:35 PM 48.7 °F - 32.2 °F 53% 29.90 in 10.0 mi SSE 5.8 mph - N/A   Clear
8:45 PM 48.2 °F - 32.0 °F 54% 29.90 in 10.0 mi Calm Calm - N/A   Clear
8:55 PM 48.2 °F - 32.4 °F 54% 29.90 in 10.0 mi SSE 8.1 mph - N/A   Clear
9:15 PM 51.4 °F - 32.0 °F 47% 29.90 in 10.0 mi SSE 8.1 mph - N/A   Clear
9:35 PM 52.0 °F - 32.0 °F 47% 29.90 in 10.0 mi SSE 8.1 mph - N/A   Clear
9:55 PM 52.3 °F - 31.8 °F 46% 29.89 in 10.0 mi South 6.9 mph - N/A   Clear
10:15 PM 52.3 °F - 31.6 °F 45% 29.89 in 10.0 mi South 5.8 mph - N/A   Clear
10:35 PM 51.8 °F - 31.6 °F 46% 29.89 in 10.0 mi South 6.9 mph - N/A   Clear
10:55 PM 51.3 °F - 31.6 °F 47% 29.89 in 10.0 mi South 5.8 mph - N/A   Clear
11:15 PM 46.4 °F 44.3 °F 31.8 °F 57% 29.90 in 10.0 mi SSE 4.6 mph - N/A   Clear
11:35 PM 45.0 °F - 32.0 °F 60% 29.90 in 10.0 mi Calm Calm - N/A   Clear
11:55 PM 44.2 °F - 32.0 °F 62% 29.90 in 10.0 mi Calm Calm - N/A   Clear